EIVAN EICK-EIDL

Flight info

Callsign EIVAN
Flight time 1h 22m
Altitude 7000
Route TISMO/N0147F060 DCT ENULA/N0149F070 DCT TADEX
Aircraft C208/L-SDFGRY/C

Departure

Time 2026-04-28 13:20
Airport Cork International Airport (EICK)

Arrival

Time 2026-04-28 14:43
Airport Donegal Airport (EIDL)
Time Latitude Longitude Altitude Speed Heading
2026-04-28 12:56 51.85184 -8.49261 502 ft 0 kts 340°
2026-04-28 13:18 51.85188 -8.49298 501 ft 8 kts 246°
2026-04-28 13:18 51.85163 -8.49402 501 ft 11 kts 247°
2026-04-28 13:18 51.85107 -8.49505 494 ft 13 kts 204°
2026-04-28 13:19 51.85023 -8.49605 488 ft 13 kts 240°
2026-04-28 13:19 51.84964 -8.49603 484 ft 9 kts 160°
2026-04-28 13:19 51.84842 -8.49530 485 ft 37 kts 160°
2026-04-28 13:19 51.84468 -8.49314 499 ft 74 kts 159°
2026-04-28 13:20 51.83936 -8.49072 638 ft 81 kts 155°
2026-04-28 13:20 51.83372 -8.48796 786 ft 92 kts 153°
2026-04-28 13:20 51.82761 -8.48450 1035 ft 93 kts 146°
2026-04-28 13:20 51.82259 -8.47838 1250 ft 92 kts 114°
2026-04-28 13:21 51.82164 -8.47160 1327 ft 99 kts 81°
2026-04-28 13:21 51.82477 -8.46188 1603 ft 99 kts 46°
2026-04-28 13:21 51.83023 -8.45545 1875 ft 96 kts 43°
2026-04-28 13:21 51.83544 -8.44850 2084 ft 99 kts 42°
2026-04-28 13:22 51.84069 -8.44134 2298 ft 99 kts 43°
2026-04-28 13:22 51.84597 -8.43397 2500 ft 100 kts 43°
2026-04-28 13:22 51.85118 -8.42658 2709 ft 99 kts 44°
2026-04-28 13:22 51.85644 -8.41908 2918 ft 102 kts 43°
2026-04-28 13:23 51.86177 -8.41133 3128 ft 104 kts 42°
2026-04-28 13:23 51.86725 -8.40347 3336 ft 107 kts 42°
2026-04-28 13:23 51.87279 -8.39544 3552 ft 107 kts 42°
2026-04-28 13:23 51.87836 -8.38740 3768 ft 107 kts 43°
2026-04-28 13:24 51.88392 -8.37935 3997 ft 107 kts 42°
2026-04-28 13:24 51.88935 -8.37147 4217 ft 105 kts 41°
2026-04-28 13:24 51.89474 -8.36369 4437 ft 102 kts 42°
2026-04-28 13:24 51.90000 -8.35606 4660 ft 100 kts 43°
2026-04-28 13:25 51.90512 -8.34864 4888 ft 98 kts 43°
2026-04-28 13:25 51.91019 -8.34130 5116 ft 97 kts 43°
2026-04-28 13:25 51.91525 -8.33398 5318 ft 98 kts 43°
2026-04-28 13:25 51.92032 -8.32662 5516 ft 98 kts 43°
2026-04-28 13:26 51.92539 -8.31925 5719 ft 98 kts 43°
2026-04-28 13:26 51.93055 -8.31177 5911 ft 101 kts 44°
2026-04-28 13:26 51.93583 -8.30409 6105 ft 103 kts 44°
2026-04-28 13:26 51.94117 -8.29635 6311 ft 103 kts 44°
2026-04-28 13:27 51.94649 -8.28860 6521 ft 102 kts 44°
2026-04-28 13:27 51.95173 -8.28102 6725 ft 102 kts 45°
2026-04-28 13:27 51.95701 -8.27330 6904 ft 105 kts 44°
2026-04-28 13:27 51.96260 -8.26512 7034 ft 111 kts 44°
2026-04-28 13:28 51.96840 -8.25669 7163 ft 113 kts 45°
2026-04-28 13:28 51.97429 -8.24811 7292 ft 115 kts 44°
2026-04-28 13:28 51.98043 -8.23919 7339 ft 124 kts 44°
2026-04-28 13:28 51.98707 -8.22949 7348 ft 132 kts 44°
2026-04-28 13:29 51.99404 -8.21934 7349 ft 137 kts 44°
2026-04-28 13:29 52.00122 -8.20885 7346 ft 141 kts 44°
2026-04-28 13:29 52.00863 -8.19808 7348 ft 145 kts 44°
2026-04-28 13:29 52.01624 -8.18699 7345 ft 148 kts 44°
2026-04-28 13:30 52.02389 -8.17580 7345 ft 148 kts 44°
2026-04-28 13:30 52.03154 -8.16464 7345 ft 148 kts 44°
2026-04-28 13:30 52.03921 -8.15342 7343 ft 148 kts 44°
2026-04-28 13:30 52.04686 -8.14225 7346 ft 148 kts 44°
2026-04-28 13:31 52.06210 -8.11996 7341 ft 146 kts 44°
2026-04-28 13:31 52.06963 -8.10899 7340 ft 145 kts 44°
2026-04-28 13:31 52.07698 -8.09816 7337 ft 144 kts 44°
2026-04-28 13:32 52.08440 -8.08730 7336 ft 144 kts 44°
2026-04-28 13:32 52.09184 -8.07642 7336 ft 144 kts 44°
2026-04-28 13:32 52.09926 -8.06552 7343 ft 144 kts 44°
2026-04-28 13:32 52.10667 -8.05464 7340 ft 143 kts 44°
2026-04-28 13:33 52.11405 -8.04379 7338 ft 142 kts 44°
2026-04-28 13:33 52.12140 -8.03301 7340 ft 143 kts 44°
2026-04-28 13:33 52.12877 -8.02220 7341 ft 143 kts 43°
2026-04-28 13:33 52.13758 -8.01466 7344 ft 149 kts 15°
2026-04-28 13:34 52.14813 -8.01507 7349 ft 153 kts
2026-04-28 13:34 52.15873 -8.01658 7351 ft 153 kts
2026-04-28 13:34 52.16921 -8.01794 7350 ft 153 kts
2026-04-28 13:34 52.17984 -8.01932 7350 ft 153 kts
2026-04-28 13:35 52.19047 -8.02073 7350 ft 152 kts
2026-04-28 13:35 52.20102 -8.02211 7352 ft 152 kts
2026-04-28 13:35 52.21159 -8.02351 7352 ft 152 kts
2026-04-28 13:35 52.22209 -8.02488 7350 ft 151 kts
2026-04-28 13:36 52.23256 -8.02626 7352 ft 151 kts
2026-04-28 13:36 52.24306 -8.02764 7351 ft 151 kts
2026-04-28 13:36 52.25360 -8.02903 7342 ft 152 kts
2026-04-28 13:36 52.26427 -8.03043 7341 ft 154 kts
2026-04-28 13:37 52.27499 -8.03184 7341 ft 155 kts
2026-04-28 13:37 52.28572 -8.03327 7340 ft 155 kts
2026-04-28 13:37 52.29631 -8.03467 7340 ft 154 kts
2026-04-28 13:37 52.30702 -8.03609 7338 ft 154 kts
2026-04-28 13:38 52.31767 -8.03749 7341 ft 153 kts
2026-04-28 13:38 52.32832 -8.03888 7341 ft 154 kts
2026-04-28 13:38 52.33901 -8.04031 7341 ft 154 kts
2026-04-28 13:38 52.34971 -8.04173 7341 ft 154 kts
2026-04-28 13:39 52.36046 -8.04313 7344 ft 156 kts
2026-04-28 13:39 52.37127 -8.04457 7343 ft 155 kts
2026-04-28 13:39 52.38203 -8.04600 7344 ft 155 kts
2026-04-28 13:39 52.39279 -8.04743 7346 ft 156 kts
2026-04-28 13:40 52.40364 -8.04887 7348 ft 157 kts
2026-04-28 13:40 52.41452 -8.05031 7347 ft 157 kts
2026-04-28 13:40 52.42537 -8.05175 7347 ft 156 kts
2026-04-28 13:40 52.43622 -8.05315 7347 ft 156 kts
2026-04-28 13:41 52.44690 -8.05462 7345 ft 156 kts
2026-04-28 13:41 52.45771 -8.05604 7343 ft 155 kts
2026-04-28 13:41 52.46845 -8.05749 7343 ft 155 kts
2026-04-28 13:41 52.47918 -8.05891 7344 ft 155 kts
2026-04-28 13:42 52.48995 -8.06033 7346 ft 155 kts
2026-04-28 13:42 52.50072 -8.06177 7343 ft 155 kts
2026-04-28 13:42 52.51148 -8.06320 7343 ft 155 kts
2026-04-28 13:42 52.52226 -8.06460 7342 ft 155 kts
2026-04-28 13:43 52.53308 -8.06579 7344 ft 156 kts
2026-04-28 13:43 52.54390 -8.06719 7343 ft 156 kts
2026-04-28 13:43 52.55471 -8.06865 7344 ft 156 kts
2026-04-28 13:43 52.56548 -8.07011 7344 ft 155 kts
2026-04-28 13:44 52.57624 -8.07155 7344 ft 155 kts
2026-04-28 13:44 52.58688 -8.07297 7344 ft 156 kts
2026-04-28 13:44 52.59768 -8.07442 7347 ft 156 kts
2026-04-28 13:44 52.60850 -8.07586 7347 ft 156 kts
2026-04-28 13:45 52.61932 -8.07743 7349 ft 156 kts
2026-04-28 13:45 52.63019 -8.07875 7350 ft 157 kts
2026-04-28 13:45 52.64114 -8.08019 7350 ft 158 kts
2026-04-28 13:45 52.65204 -8.08168 7349 ft 157 kts
2026-04-28 13:46 52.66293 -8.08315 7350 ft 157 kts
2026-04-28 13:46 52.67383 -8.08462 7350 ft 157 kts
2026-04-28 13:46 52.68472 -8.08608 7351 ft 157 kts
2026-04-28 13:46 52.69559 -8.08754 7349 ft 156 kts
2026-04-28 13:47 52.70644 -8.08899 7352 ft 157 kts
2026-04-28 13:47 52.71734 -8.09048 7352 ft 157 kts
2026-04-28 13:47 52.72824 -8.09193 7352 ft 157 kts
2026-04-28 13:47 52.73914 -8.09340 7349 ft 158 kts
2026-04-28 13:48 52.75018 -8.09487 7349 ft 159 kts
2026-04-28 13:48 52.76121 -8.09639 7349 ft 159 kts
2026-04-28 13:48 52.77207 -8.09784 7349 ft 158 kts
2026-04-28 13:48 52.78305 -8.09934 7353 ft 159 kts
2026-04-28 13:49 52.79407 -8.10080 7350 ft 159 kts
2026-04-28 13:49 52.80511 -8.10236 7353 ft 160 kts
2026-04-28 13:49 52.81615 -8.10378 7351 ft 159 kts
2026-04-28 13:49 52.82712 -8.10526 7352 ft 158 kts
2026-04-28 13:50 52.83814 -8.10675 7353 ft 158 kts
2026-04-28 13:50 52.84911 -8.10826 7353 ft 158 kts
2026-04-28 13:50 52.86007 -8.10973 7351 ft 157 kts
2026-04-28 13:50 52.87098 -8.11123 7350 ft 157 kts
2026-04-28 13:51 52.88183 -8.11270 7352 ft 156 kts
2026-04-28 13:51 52.89266 -8.11417 7352 ft 156 kts
2026-04-28 13:51 52.90350 -8.11564 7354 ft 156 kts
2026-04-28 13:51 52.91439 -8.11710 7356 ft 157 kts
2026-04-28 13:52 52.92530 -8.11858 7353 ft 158 kts
2026-04-28 13:52 52.93611 -8.12006 7353 ft 158 kts
2026-04-28 13:52 52.94707 -8.12154 7364 ft 158 kts
2026-04-28 13:52 52.95800 -8.12302 7367 ft 158 kts
2026-04-28 13:53 52.96893 -8.12452 7364 ft 158 kts
2026-04-28 13:53 52.97990 -8.12599 7358 ft 158 kts
2026-04-28 13:53 52.99086 -8.12753 7358 ft 158 kts
2026-04-28 13:53 53.00179 -8.12899 7359 ft 158 kts
2026-04-28 13:54 53.01274 -8.13047 7359 ft 158 kts
2026-04-28 13:54 53.02373 -8.13198 7360 ft 158 kts
2026-04-28 13:54 53.03468 -8.13349 7359 ft 158 kts
2026-04-28 13:54 53.04563 -8.13498 7358 ft 157 kts
2026-04-28 13:55 53.05651 -8.13647 7358 ft 157 kts
2026-04-28 13:55 53.06741 -8.13797 7359 ft 157 kts
2026-04-28 13:55 53.07833 -8.13944 7361 ft 157 kts
2026-04-28 13:55 53.08926 -8.14095 7362 ft 157 kts
2026-04-28 13:56 53.10006 -8.14242 7361 ft 158 kts
2026-04-28 13:56 53.11102 -8.14391 7362 ft 158 kts
2026-04-28 13:56 53.12199 -8.14541 7362 ft 158 kts
2026-04-28 13:56 53.13298 -8.14693 7362 ft 158 kts
2026-04-28 13:57 53.14395 -8.14843 7364 ft 158 kts
2026-04-28 13:57 53.15495 -8.14995 7364 ft 158 kts
2026-04-28 13:57 53.16598 -8.15145 7365 ft 159 kts
2026-04-28 13:57 53.17701 -8.15296 7370 ft 159 kts
2026-04-28 13:58 53.18805 -8.15450 7372 ft 159 kts
2026-04-28 13:58 53.19912 -8.15600 7372 ft 159 kts
2026-04-28 13:58 53.21020 -8.15754 7372 ft 160 kts
2026-04-28 13:58 53.22120 -8.15904 7373 ft 160 kts
2026-04-28 13:59 53.23230 -8.16057 7372 ft 160 kts
2026-04-28 13:59 53.24338 -8.16210 7372 ft 159 kts
2026-04-28 13:59 53.25441 -8.16363 7371 ft 159 kts
2026-04-28 13:59 53.26544 -8.16514 7370 ft 159 kts
2026-04-28 14:00 53.27646 -8.16668 7372 ft 159 kts
2026-04-28 14:00 53.28750 -8.16820 7370 ft 159 kts
2026-04-28 14:00 53.29854 -8.16972 7374 ft 159 kts
2026-04-28 14:00 53.30955 -8.17125 7370 ft 159 kts
2026-04-28 14:01 53.32043 -8.17274 7369 ft 159 kts
2026-04-28 14:01 53.33144 -8.17428 7369 ft 158 kts
2026-04-28 14:01 53.34245 -8.17581 7369 ft 159 kts
2026-04-28 14:01 53.35348 -8.17734 7372 ft 159 kts
2026-04-28 14:02 53.36451 -8.17885 7371 ft 159 kts
2026-04-28 14:02 53.37555 -8.18038 7372 ft 159 kts
2026-04-28 14:02 53.38657 -8.18192 7370 ft 159 kts
2026-04-28 14:02 53.39763 -8.18345 7370 ft 159 kts
2026-04-28 14:03 53.40867 -8.18498 7370 ft 159 kts
2026-04-28 14:03 53.41970 -8.18652 7370 ft 159 kts
2026-04-28 14:03 53.43072 -8.18805 7370 ft 159 kts
2026-04-28 14:03 53.44172 -8.18957 7369 ft 158 kts
2026-04-28 14:04 53.45255 -8.19110 7369 ft 158 kts
2026-04-28 14:04 53.46351 -8.19262 7370 ft 158 kts
2026-04-28 14:04 53.47449 -8.19417 7374 ft 159 kts
2026-04-28 14:04 53.48550 -8.19568 7374 ft 159 kts
2026-04-28 14:05 53.49661 -8.19724 7374 ft 159 kts
2026-04-28 14:05 53.50766 -8.19876 7375 ft 159 kts
2026-04-28 14:05 53.51871 -8.20032 7375 ft 159 kts
2026-04-28 14:05 53.52978 -8.20187 7374 ft 159 kts
2026-04-28 14:06 53.54084 -8.20342 7375 ft 160 kts
2026-04-28 14:06 53.55194 -8.20495 7376 ft 160 kts
2026-04-28 14:06 53.56311 -8.20651 7379 ft 162 kts
2026-04-28 14:06 53.57433 -8.20806 7436 ft 160 kts
2026-04-28 14:07 53.58525 -8.20964 7553 ft 156 kts
2026-04-28 14:07 53.59594 -8.21118 7674 ft 153 kts
2026-04-28 14:07 53.60650 -8.21266 7790 ft 151 kts
2026-04-28 14:07 53.61678 -8.21413 7908 ft 149 kts
2026-04-28 14:08 53.62704 -8.21555 8029 ft 147 kts
2026-04-28 14:08 53.63724 -8.21700 8151 ft 146 kts
2026-04-28 14:08 53.64736 -8.21842 8275 ft 146 kts
2026-04-28 14:08 53.65409 -8.21936 8358 ft 146 kts
2026-04-28 14:09 53.66424 -8.22078 8489 ft 146 kts
2026-04-28 14:09 53.67439 -8.22231 8617 ft 146 kts
2026-04-28 14:09 53.68454 -8.22362 8745 ft 146 kts
2026-04-28 14:09 53.69475 -8.22504 8875 ft 147 kts
2026-04-28 14:10 53.70497 -8.22648 8998 ft 147 kts
2026-04-28 14:10 53.71515 -8.22795 9118 ft 146 kts
2026-04-28 14:10 53.72531 -8.22939 9247 ft 146 kts
2026-04-28 14:10 53.73536 -8.23079 9358 ft 148 kts
2026-04-28 14:11 53.74579 -8.23224 9386 ft 154 kts
2026-04-28 14:11 53.75661 -8.23370 9394 ft 158 kts
2026-04-28 14:11 53.76772 -8.23525 9395 ft 162 kts
2026-04-28 14:11 53.77904 -8.23685 9391 ft 164 kts
2026-04-28 14:12 53.79042 -8.23847 9390 ft 164 kts
2026-04-28 14:12 53.80184 -8.24009 9393 ft 165 kts
2026-04-28 14:12 53.81331 -8.24171 9392 ft 166 kts
2026-04-28 14:12 53.82483 -8.24333 9393 ft 166 kts
2026-04-28 14:13 53.83637 -8.24497 9390 ft 166 kts
2026-04-28 14:13 53.84791 -8.24661 9390 ft 166 kts
2026-04-28 14:13 53.85931 -8.24823 9391 ft 166 kts
2026-04-28 14:13 53.87101 -8.24990 9393 ft 167 kts
2026-04-28 14:14 53.88242 -8.25151 9396 ft 167 kts
2026-04-28 14:14 53.89401 -8.25318 9394 ft 167 kts
2026-04-28 14:14 53.90559 -8.25480 9394 ft 167 kts
2026-04-28 14:14 53.91718 -8.25646 9394 ft 167 kts
2026-04-28 14:15 53.92871 -8.25810 9393 ft 166 kts
2026-04-28 14:15 53.94023 -8.25974 9393 ft 166 kts
2026-04-28 14:15 53.95175 -8.26138 9394 ft 166 kts
2026-04-28 14:15 53.96330 -8.26303 9384 ft 166 kts
2026-04-28 14:16 53.97485 -8.26447 9372 ft 166 kts
2026-04-28 14:16 53.98648 -8.26393 9137 ft 171 kts
2026-04-28 14:16 53.99827 -8.26353 8876 ft 168 kts
2026-04-28 14:16 54.00971 -8.26321 8786 ft 158 kts
2026-04-28 14:17 54.02033 -8.26294 8770 ft 148 kts
2026-04-28 14:17 54.03042 -8.26263 8753 ft 142 kts
2026-04-28 14:17 54.04023 -8.26229 8688 ft 143 kts
2026-04-28 14:17 54.05055 -8.26183 8437 ft 153 kts
2026-04-28 14:18 54.06139 -8.26140 8200 ft 158 kts
2026-04-28 14:18 54.07250 -8.26106 7960 ft 161 kts
2026-04-28 14:18 54.08384 -8.26306 7722 ft 166 kts 355°
2026-04-28 14:18 54.09529 -8.26644 7479 ft 167 kts 356°
2026-04-28 14:19 54.10681 -8.26943 7238 ft 167 kts 357°
2026-04-28 14:19 54.11823 -8.27219 6999 ft 168 kts 357°
2026-04-28 14:19 54.12979 -8.27503 6755 ft 168 kts 356°
2026-04-28 14:19 54.14133 -8.27787 6496 ft 168 kts 356°
2026-04-28 14:20 54.15286 -8.28070 6237 ft 167 kts 356°
2026-04-28 14:20 54.16429 -8.28356 5983 ft 165 kts 356°
2026-04-28 14:20 54.17563 -8.28633 5728 ft 164 kts 356°
2026-04-28 14:20 54.18689 -8.28911 5475 ft 163 kts 356°
2026-04-28 14:21 54.19813 -8.29189 5224 ft 163 kts 357°
2026-04-28 14:21 54.20928 -8.29465 4963 ft 162 kts 356°
2026-04-28 14:21 54.22045 -8.29739 4699 ft 163 kts 355°
2026-04-28 14:21 54.23179 -8.30017 4445 ft 164 kts 355°
2026-04-28 14:22 54.24295 -8.30299 4299 ft 158 kts 356°
2026-04-28 14:22 54.25365 -8.30570 4163 ft 154 kts 356°
2026-04-28 14:22 54.26413 -8.30831 4032 ft 151 kts 355°
2026-04-28 14:22 54.27445 -8.31087 3904 ft 149 kts 356°
2026-04-28 14:23 54.28473 -8.31335 3772 ft 149 kts 355°
2026-04-28 14:23 54.29484 -8.31592 3647 ft 148 kts 356°
2026-04-28 14:23 54.30504 -8.31839 3515 ft 148 kts 356°
2026-04-28 14:23 54.31523 -8.32092 3405 ft 148 kts 357°
2026-04-28 14:24 54.32551 -8.32344 3407 ft 151 kts 356°
2026-04-28 14:24 54.33598 -8.32607 3407 ft 153 kts 356°
2026-04-28 14:24 54.34663 -8.32869 3407 ft 155 kts 356°
2026-04-28 14:24 54.35736 -8.33134 3408 ft 156 kts 356°
2026-04-28 14:25 54.36821 -8.33405 3407 ft 159 kts 357°
2026-04-28 14:25 54.37921 -8.33638 3410 ft 160 kts 356°
2026-04-28 14:25 54.39031 -8.33955 3408 ft 162 kts 355°
2026-04-28 14:25 54.40152 -8.34247 3407 ft 163 kts 356°
2026-04-28 14:26 54.41277 -8.34519 3404 ft 163 kts 356°
2026-04-28 14:26 54.42376 -8.34793 3402 ft 161 kts 356°
2026-04-28 14:26 54.43479 -8.35068 3402 ft 160 kts 356°
2026-04-28 14:26 54.44582 -8.35339 3399 ft 159 kts 356°
2026-04-28 14:27 54.45680 -8.35618 3403 ft 160 kts 356°
2026-04-28 14:27 54.46784 -8.35892 3398 ft 161 kts 355°
2026-04-28 14:27 54.47889 -8.36167 3396 ft 159 kts 355°
2026-04-28 14:27 54.48983 -8.36445 3396 ft 159 kts 355°
2026-04-28 14:28 54.50082 -8.36720 3394 ft 159 kts 355°
2026-04-28 14:28 54.51177 -8.36994 3393 ft 159 kts 354°
2026-04-28 14:28 54.52274 -8.37269 3396 ft 158 kts 355°
2026-04-28 14:28 54.53366 -8.37544 3396 ft 159 kts 355°
2026-04-28 14:29 54.54459 -8.37819 3398 ft 158 kts 355°
2026-04-28 14:29 54.55542 -8.38091 3395 ft 157 kts 355°
2026-04-28 14:29 54.56622 -8.38364 3397 ft 156 kts 355°
2026-04-28 14:29 54.57698 -8.38634 3396 ft 156 kts 355°
2026-04-28 14:30 54.58759 -8.38902 3401 ft 156 kts 355°
2026-04-28 14:30 54.59832 -8.39172 3399 ft 155 kts 355°
2026-04-28 14:30 54.60905 -8.39442 3401 ft 156 kts 355°
2026-04-28 14:30 54.61977 -8.39713 3399 ft 155 kts 355°
2026-04-28 14:31 54.63045 -8.39982 3396 ft 155 kts 355°
2026-04-28 14:31 54.64115 -8.40255 3399 ft 156 kts 355°
2026-04-28 14:31 54.65192 -8.40523 3397 ft 157 kts 355°
2026-04-28 14:31 54.66266 -8.40795 3398 ft 156 kts 355°
2026-04-28 14:32 54.67335 -8.41074 3408 ft 156 kts 355°
2026-04-28 14:32 54.68420 -8.41338 3407 ft 157 kts 355°
2026-04-28 14:32 54.69506 -8.41613 3412 ft 158 kts 355°
2026-04-28 14:32 54.70580 -8.41887 3409 ft 158 kts 356°
2026-04-28 14:33 54.71671 -8.42160 3400 ft 158 kts 355°
2026-04-28 14:33 54.72761 -8.42438 3403 ft 160 kts 354°
2026-04-28 14:33 54.73872 -8.42720 3401 ft 162 kts 354°
2026-04-28 14:33 54.74990 -8.43003 3402 ft 163 kts 354°
2026-04-28 14:34 54.77229 -8.43574 3408 ft 162 kts 354°
2026-04-28 14:34 54.78345 -8.43857 3406 ft 161 kts 354°
2026-04-28 14:34 54.79452 -8.44139 3405 ft 161 kts 354°
2026-04-28 14:35 54.80541 -8.44419 3403 ft 154 kts 354°
2026-04-28 14:35 54.81561 -8.44685 3402 ft 147 kts 354°
2026-04-28 14:35 54.82556 -8.44944 3404 ft 142 kts 354°
2026-04-28 14:35 54.83525 -8.45192 3404 ft 139 kts 354°
2026-04-28 14:36 54.84484 -8.45435 3402 ft 138 kts 354°
2026-04-28 14:36 54.85446 -8.45681 3312 ft 143 kts 354°
2026-04-28 14:36 54.86440 -8.45723 3184 ft 143 kts 17°
2026-04-28 14:36 54.87369 -8.45097 3068 ft 144 kts 24°
2026-04-28 14:37 54.88301 -8.44505 2948 ft 145 kts 23°
2026-04-28 14:37 54.89252 -8.43897 2826 ft 146 kts 23°
2026-04-28 14:37 54.90179 -8.43298 2696 ft 137 kts 23°
2026-04-28 14:37 54.91050 -8.42739 2569 ft 133 kts 24°
2026-04-28 14:38 54.91917 -8.42184 2407 ft 132 kts 24°
2026-04-28 14:38 54.92783 -8.41618 2263 ft 133 kts 24°
2026-04-28 14:38 54.93645 -8.41064 2171 ft 130 kts 22°
2026-04-28 14:38 54.94481 -8.40532 2082 ft 126 kts 24°
2026-04-28 14:39 54.95273 -8.40023 2065 ft 116 kts 24°
2026-04-28 14:39 54.95993 -8.39561 2071 ft 105 kts 24°
2026-04-28 14:39 54.96659 -8.39133 2061 ft 100 kts 24°
2026-04-28 14:39 54.97312 -8.38721 2028 ft 101 kts 21°
2026-04-28 14:40 54.97990 -8.38312 1951 ft 105 kts 21°
2026-04-28 14:40 54.98454 -8.38032 1891 ft 107 kts 22°
2026-04-28 14:40 54.99340 -8.37461 1646 ft 95 kts 24°
2026-04-28 14:40 54.99923 -8.37072 1463 ft 86 kts 24°
2026-04-28 14:41 55.00470 -8.36704 1257 ft 84 kts 23°
2026-04-28 14:41 55.01009 -8.36335 1018 ft 82 kts 24°
2026-04-28 14:41 55.01526 -8.35939 779 ft 76 kts 22°
2026-04-28 14:41 55.02014 -8.35629 584 ft 74 kts 17°
2026-04-28 14:42 55.02485 -8.35322 420 ft 71 kts 15°
2026-04-28 14:42 55.02953 -8.35033 292 ft 72 kts 17°
2026-04-28 14:42 55.03431 -8.34719 171 ft 74 kts 14°
2026-04-28 14:42 55.03913 -8.34426 53 ft 71 kts 18°
2026-04-28 14:43 55.04314 -8.34167 32 ft 49 kts 19°
2026-04-28 14:43 55.04447 -8.34061 32 ft 9 kts 54°
2026-04-28 14:43 55.04420 -8.34099 33 ft 17 kts 200°
2026-04-28 14:43 55.04274 -8.34195 33 ft 25 kts 201°
2026-04-28 14:44 55.04102 -8.34308 35 ft 28 kts 202°
2026-04-28 14:44 55.03928 -8.34418 32 ft 14 kts 200°
2026-04-28 14:44 55.03879 -8.34356 32 ft 9 kts 108°
2026-04-28 14:44 55.03874 -8.34330 32 ft 0 kts 103°
2026-04-28 14:45 55.03875 -8.34309 32 ft 6 kts 74°
2026-04-28 14:45 55.03871 -8.34249 32 ft 5 kts 203°
2026-04-28 14:45 55.03845 -8.34247 32 ft 0 kts 104°
2026-04-28 14:45 55.03845 -8.34246 32 ft 0 kts 104°